GEC238 SAEZ-SCEL

Flight info

Callsign GEC238
Flight time N/A
Altitude 30000
Route URINO1E URINO UL405 TOSOR UT687 UMKAL UMKAL7C
Aircraft B77L/H-SDE1E2E3FGHIJ2J3J4J5M1RWXY/LB1D1

Departure

Time 2026-05-07 04:07
Airport Ezeiza International Airport - Ministro Pistarini (SAEZ)

Arrival

Time N/A
Airport Comodoro Arturo Merino Benítez International Airport (SCEL)
Time Latitude Longitude Altitude Speed Heading
2026-05-07 03:36 -34.80958 -58.53721 84 ft 0 kts 252°
2026-05-07 03:56 -34.80955 -58.53711 80 ft 4 kts 251°
2026-05-07 03:56 -34.80945 -58.53681 82 ft 4 kts 242°
2026-05-07 03:56 -34.80931 -58.53653 86 ft 4 kts 231°
2026-05-07 03:57 -34.80912 -58.53631 86 ft 4 kts 207°
2026-05-07 03:57 -34.80892 -58.53625 86 ft 1 kts 164°
2026-05-07 03:57 -34.80888 -58.53626 86 ft 0 kts 164°
2026-05-07 04:00 -34.80896 -58.53623 81 ft 4 kts 164°
2026-05-07 04:00 -34.80967 -58.53600 85 ft 17 kts 165°
2026-05-07 04:00 -34.81119 -58.53554 85 ft 26 kts 185°
2026-05-07 04:00 -34.81296 -58.53591 84 ft 26 kts 179°
2026-05-07 04:01 -34.81473 -58.53630 82 ft 26 kts 202°
2026-05-07 04:01 -34.81625 -58.53747 84 ft 26 kts 211°
2026-05-07 04:01 -34.81784 -58.53705 85 ft 25 kts 137°
2026-05-07 04:01 -34.81909 -58.53563 83 ft 25 kts 114°
2026-05-07 04:02 -34.81954 -58.53356 82 ft 25 kts 103°
2026-05-07 04:02 -34.81999 -58.53149 85 ft 25 kts 105°
2026-05-07 04:02 -34.82044 -58.52941 88 ft 25 kts 103°
2026-05-07 04:02 -34.82087 -58.52722 83 ft 28 kts 103°
2026-05-07 04:03 -34.82130 -58.52480 83 ft 30 kts 97°
2026-05-07 04:03 -34.82182 -58.52229 84 ft 31 kts 105°
2026-05-07 04:03 -34.82234 -58.51974 80 ft 30 kts 103°
2026-05-07 04:03 -34.82340 -58.51790 83 ft 28 kts 185°
2026-05-07 04:04 -34.82369 -58.51794 84 ft 0 kts 192°
2026-05-07 04:05 -34.82383 -58.51798 84 ft 9 kts 191°
2026-05-07 04:05 -34.82496 -58.51830 89 ft 19 kts 205°
2026-05-07 04:06 -34.82529 -58.51909 88 ft 0 kts 282°
2026-05-07 04:06 -34.82528 -58.51915 89 ft 1 kts 282°
2026-05-07 04:06 -34.82508 -58.52001 86 ft 23 kts 283°
2026-05-07 04:06 -34.82437 -58.52347 87 ft 70 kts 283°
2026-05-07 04:07 -34.82289 -58.53166 88 ft 127 kts 281°
2026-05-07 04:07 -34.82086 -58.54398 93 ft 172 kts 281°
2026-05-07 04:07 -34.81813 -58.55851 477 ft 178 kts 285°
2026-05-07 04:07 -34.81474 -58.57339 826 ft 190 kts 286°
2026-05-07 04:08 -34.81150 -58.58946 1215 ft 199 kts 274°
2026-05-07 04:08 -34.81327 -58.60611 1949 ft 197 kts 253°
2026-05-07 04:08 -34.82072 -58.62026 2501 ft 207 kts 225°
2026-05-07 04:08 -34.83170 -58.63125 3178 ft 198 kts 229°
2026-05-07 04:09 -34.84129 -58.64298 3865 ft 197 kts 235°
2026-05-07 04:09 -34.85033 -58.65641 4155 ft 218 kts 240°
2026-05-07 04:09 -34.85939 -58.67195 4571 ft 233 kts 243°
2026-05-07 04:09 -34.86818 -58.68840 5463 ft 228 kts 246°
2026-05-07 04:10 -34.87638 -58.70601 5808 ft 252 kts 249°
2026-05-07 04:10 -34.88529 -58.72530 6310 ft 268 kts 237°
2026-05-07 04:10 -34.89762 -58.74248 7140 ft 267 kts 238°
2026-05-07 04:10 -34.90609 -58.76104 8360 ft 244 kts 260°
2026-05-07 04:11 -34.90725 -58.78163 8884 ft 250 kts 286°
2026-05-07 04:11 -34.90180 -58.80177 9539 ft 253 kts 289°
2026-05-07 04:11 -34.89545 -58.82184 10112 ft 255 kts 293°
2026-05-07 04:11 -34.89045 -58.84284 10521 ft 270 kts 285°
2026-05-07 04:12 -34.88600 -58.86575 10809 ft 290 kts 283°
2026-05-07 04:12 -34.88247 -58.89071 11263 ft 305 kts 281°
2026-05-07 04:12 -34.87924 -58.91659 11998 ft 312 kts 281°
2026-05-07 04:12 -34.87584 -58.94290 12827 ft 316 kts 282°
2026-05-07 04:13 -34.87221 -58.96940 13628 ft 320 kts 283°
2026-05-07 04:13 -34.86835 -58.99610 14404 ft 322 kts 284°
2026-05-07 04:13 -34.86430 -59.02312 15183 ft 325 kts 284°
2026-05-07 04:13 -34.86014 -59.05002 15887 ft 331 kts 285°
2026-05-07 04:14 -34.85578 -59.07773 16600 ft 335 kts 286°
2026-05-07 04:14 -34.85133 -59.10570 17396 ft 338 kts 286°
2026-05-07 04:14 -34.84680 -59.13391 18129 ft 341 kts 287°
2026-05-07 04:14 -34.84221 -59.16231 18784 ft 344 kts 287°
2026-05-07 04:15 -34.83757 -59.19097 19452 ft 347 kts 287°
2026-05-07 04:15 -34.83287 -59.21983 20106 ft 350 kts 287°
2026-05-07 04:15 -34.82812 -59.24901 20756 ft 353 kts 287°
2026-05-07 04:15 -34.82332 -59.27841 21388 ft 357 kts 287°
2026-05-07 04:16 -34.81843 -59.30813 21685 ft 369 kts 287°
2026-05-07 04:16 -34.81334 -59.33915 22148 ft 378 kts 287°
2026-05-07 04:16 -34.80817 -59.37069 22717 ft 382 kts 287°
2026-05-07 04:16 -34.80296 -59.40250 23351 ft 384 kts 286°
2026-05-07 04:17 -34.79788 -59.43444 23909 ft 387 kts 286°
2026-05-07 04:17 -34.79277 -59.46665 24450 ft 389 kts 286°
2026-05-07 04:17 -34.78752 -59.49909 24993 ft 392 kts 286°
2026-05-07 04:17 -34.78215 -59.53174 25510 ft 395 kts 286°
2026-05-07 04:18 -34.77678 -59.56411 26016 ft 398 kts 286°
2026-05-07 04:18 -34.77126 -59.59724 26530 ft 401 kts 285°
2026-05-07 04:18 -34.76571 -59.63051 27103 ft 403 kts 286°
2026-05-07 04:18 -34.76010 -59.66403 27617 ft 406 kts 285°
2026-05-07 04:19 -34.75447 -59.69767 28104 ft 409 kts 285°
2026-05-07 04:19 -34.74877 -59.73171 28570 ft 412 kts 285°
2026-05-07 04:19 -34.74301 -59.76600 29033 ft 415 kts 285°
2026-05-07 04:19 -34.73723 -59.80044 29494 ft 418 kts 285°
2026-05-07 04:20 -34.73134 -59.83538 29626 ft 425 kts 285°
2026-05-07 04:20 -34.71952 -59.90555 29659 ft 421 kts 285°
2026-05-07 04:21 -34.70199 -60.00917 29630 ft 417 kts 285°
2026-05-07 04:21 -34.69028 -60.07794 29643 ft 415 kts 285°
2026-05-07 04:22 -34.67856 -60.14652 29644 ft 414 kts 285°
2026-05-07 04:22 -34.66677 -60.21515 29650 ft 419 kts 285°
2026-05-07 04:23 -34.66070 -60.25030 29663 ft 431 kts 285°
2026-05-07 04:23 -34.65459 -60.28565 29661 ft 438 kts 285°
2026-05-07 04:23 -34.64194 -60.35885 29655 ft 446 kts 285°
2026-05-07 04:24 -34.62925 -60.43227 29645 ft 442 kts 285°
2026-05-07 04:24 -34.61658 -60.50517 29618 ft 440 kts 285°
2026-05-07 04:25 -34.60396 -60.57739 29646 ft 441 kts 285°
2026-05-07 04:25 -34.59118 -60.65029 29668 ft 443 kts 285°
2026-05-07 04:26 -34.57828 -60.72355 29666 ft 445 kts 285°
2026-05-07 04:26 -34.56542 -60.79653 29682 ft 434 kts 286°
2026-05-07 04:27 -34.55297 -60.86678 29677 ft 428 kts 286°
2026-05-07 04:27 -34.54033 -60.93773 29677 ft 432 kts 286°
2026-05-07 04:28 -34.52889 -61.00956 29622 ft 435 kts 284°